KJ6WEG Weather Reports


Display with metric or nautical units.
time (UTC)temp
F
wind
direction
speed
MPH
gust
MPH
rain 1hr
in
rain 24hr
in
rain mn
in
humidity
%
barometer
mb
20260901205552 67 227 2.0 10.0 0.00 0.00 0.00 80 1016.7
20260901205052 68 232 4.0 10.0 0.00 0.00 0.00 78 1016.7
20260901204608 68 246 3.0 10.0 0.00 0.00 0.00 78 1016.8
20260901204053 68 221 3.0 14.0 0.00 0.00 0.00 78 1016.7
20260901203552 68 306 3.0 14.0 0.00 0.00 0.00 78 1016.8
20260901203104 68 326 5.0 13.0 0.00 0.00 0.00 78 1016.8
20260901202556 68 295 3.0 11.0 0.00 0.00 0.00 77 1016.9
20260901202053 69 300 3.0 11.0 0.00 0.00 0.00 78 1016.8
20260901201603 68 319 3.0 11.0 0.00 0.00 0.00 78 1016.8
20260901201053 68 271 2.0 10.0 0.00 0.00 0.00 78 1016.9
20260901200552 68 289 4.0 9.0 0.00 0.00 0.00 78 1017.0
20260901200114 68 0 3.0 11.0 0.00 0.00 0.00 78 1016.9
20260901195554 68 275 4.0 11.0 0.00 0.00 0.00 78 1017.0
20260901195053 68 292 3.0 10.0 0.00 0.00 0.00 78 1017.0
20260901194603 68 308 3.0 11.0 0.00 0.00 0.00 78 1017.0
20260901194054 68 247 2.0 11.0 0.00 0.00 0.00 79 1017.0
20260901193554 67 284 1.0 10.0 0.00 0.00 0.00 80 1017.1
20260901193111 67 261 4.0 10.0 0.00 0.00 0.00 78 1017.2
20260901192554 67 289 2.0 9.0 0.00 0.00 0.00 78 1017.2
20260901192100 67 233 2.0 9.0 0.00 0.00 0.00 77 1017.1
20260901191605 68 0 3.0 9.0 0.00 0.00 0.00 77 1017.2
20260901191053 68 249 2.0 8.0 0.00 0.00 0.00 79 1017.1
20260901190553 68 188 3.0 8.0 0.00 0.00 0.00 78 1017.2
20260901190109 67 236 1.0 8.0 0.00 0.00 0.00 79 1017.2
20260901185554 67 236 3.0 12.0 0.00 0.00 0.00 79 1017.2
20260901185058 66 293 3.0 12.0 0.00 0.00 0.00 80 1017.2
20260901184610 66 219 1.0 7.0 0.00 0.00 0.00 83 1017.3
20260901184051 66 220 2.0 7.0 0.00 0.00 0.00 81 1017.2
20260901183554 66 267 1.0 8.0 0.00 0.00 0.00 82 1017.3
20260901183111 66 217 3.0 8.0 0.00 0.00 0.00 81 1017.1
20260901182555 66 245 2.0 9.0 0.00 0.00 0.00 79 1017.1
20260901182055 66 360 3.0 9.0 0.00 0.00 0.00 78 1017.1
20260901181607 66 360 1.0 8.0 0.00 0.00 0.00 80 1017.0
20260901181054 65 360 2.0 8.0 0.00 0.00 0.00 81 1017.1
20260901180554 65 260 4.0 9.0 0.00 0.00 0.00 80 1017.1
20260901180108 65 241 2.0 9.0 0.00 0.00 0.00 82 1017.1
20260901175553 65 247 2.0 10.0 0.00 0.00 0.00 82 1017.1
20260901175054 66 220 4.0 10.0 0.00 0.00 0.00 83 1017.1
20260901174607 65 192 2.0 10.0 0.00 0.00 0.00 85 1017.0
20260901174055 65 259 3.0 9.0 0.00 0.00 0.00 85 1016.9
20260901173555 64 246 3.0 10.0 0.00 0.00 0.00 86 1016.8
20260901173102 64 249 3.0 10.0 0.00 0.00 0.00 85 1016.7
20260901172554 64 235 3.0 10.0 0.00 0.00 0.00 84 1016.6
20260901172054 64 280 1.0 10.0 0.00 0.00 0.00 86 1016.7
20260901171608 64 360 2.0 10.0 0.00 0.00 0.00 86 1016.7
20260901171055 64 304 4.0 11.0 0.00 0.00 0.00 85 1016.8
20260901170555 64 322 3.0 12.0 0.00 0.00 0.00 86 1016.8
20260901170109 64 211 2.0 12.0 0.00 0.00 0.00 86 1016.6
20260901165555 64 205 3.0 10.0 0.00 0.00 0.00 86 1016.6
20260901165056 63 246 3.0 9.0 0.00 0.00 0.00 86 1016.5
20260901164605 63 234 2.0 9.0 0.00 0.00 0.00 88 1016.4
20260901164057 63 219 4.0 9.0 0.00 0.00 0.00 87 1016.4
20260901163556 63 265 2.0 9.0 0.00 0.00 0.00 88 1016.4
20260901163117 63 258 2.0 9.0 0.00 0.00 0.00 88 1016.3
20260901162559 63 247 2.0 8.0 0.00 0.00 0.00 89 1016.3
20260901162054 62 264 4.0 12.0 0.00 0.00 0.00 89 1016.3
20260901161627 62 360 2.0 12.0 0.00 0.00 0.00 90 1016.3
20260901161056 62 202 2.0 12.0 0.00 0.00 0.00 90 1016.3
20260901160558 62 232 2.0 14.0 0.00 0.00 0.00 90 1016.3
20260901160104 62 194 4.0 14.0 0.00 0.00 0.00 90 1016.2
20260901155556 62 254 5.0 11.0 0.00 0.00 0.00 90 1016.2
20260901155055 62 231 4.0 10.0 0.00 0.00 0.00 90 1016.2
20260901154620 62 242 3.0 10.0 0.00 0.00 0.00 90 1016.1
20260901154057 61 234 3.0 10.0 0.00 0.00 0.00 91 1016.1
20260901153601 61 360 3.0 10.0 0.00 0.00 0.00 91 1016.0
20260901153108 61 261 2.0 10.0 0.00 0.00 0.00 92 1015.9
20260901152556 61 248 2.0 10.0 0.00 0.00 0.00 92 1015.9
20260901152059 61 281 3.0 8.0 0.00 0.00 0.00 92 1015.9
20260901151610 61 213 2.0 11.0 0.00 0.00 0.00 92 1015.8
20260901151052 61 360 3.0 11.0 0.00 0.00 0.00 93 1015.8
20260901150555 61 180 3.0 11.0 0.00 0.00 0.00 93 1015.6
20260901150121 61 274 2.0 9.0 0.00 0.00 0.00 93 1015.6
20260901145553 61 235 2.0 8.0 0.00 0.00 0.00 93 1015.6
20260901145054 60 360 1.0 7.0 0.00 0.00 0.00 93 1015.6
20260901144605 60 0 2.0 7.0 0.00 0.00 0.00 93 1015.5
20260901144054 60 0 2.0 7.0 0.00 0.00 0.00 93 1015.5
20260901143554 60 209 2.0 7.0 0.00 0.00 0.00 93 1015.4
20260901143104 60 267 1.0 7.0 0.00 0.00 0.00 93 1015.3
20260901142550 60 233 2.0 5.0 0.00 0.00 0.00 93 1015.3
20260901142055 60 234 1.0 10.0 0.00 0.00 0.00 93 1015.2
20260901141610 60 0 2.0 10.0 0.00 0.00 0.00 93 1015.2
20260901141056 60 207 1.0 7.0 0.00 0.00 0.00 93 1015.2
20260901140553 60 237 3.0 7.0 0.00 0.00 0.00 93 1015.1
20260901140108 60 212 1.0 6.0 0.00 0.00 0.00 93 1015.0
20260901135556 60 211 2.0 8.0 0.00 0.00 0.00 93 1014.9
20260901135055 60 221 2.0 8.0 0.00 0.00 0.00 93 1014.9
20260901134606 60 243 3.0 8.0 0.00 0.00 0.00 93 1014.9
20260901134053 60 212 1.0 5.0 0.00 0.00 0.00 93 1014.9
20260901133554 60 188 1.0 7.0 0.00 0.00 0.00 93 1014.9
20260901133105 60 251 2.0 7.0 0.00 0.00 0.00 93 1014.7
20260901132551 60 240 1.0 7.0 0.00 0.00 0.00 93 1014.7
20260901132055 60 0 3.0 7.0 0.00 0.00 0.00 92 1014.6
20260901131608 60 249 2.0 7.0 0.00 0.00 0.00 92 1014.6
20260901131054 60 239 2.0 6.0 0.00 0.00 0.00 92 1014.5
20260901130555 60 238 1.0 5.0 0.00 0.00 0.00 92 1014.4
20260901130108 60 215 1.0 5.0 0.00 0.00 0.00 92 1014.3
20260901125551 60 233 1.0 6.0 0.00 0.00 0.00 92 1014.2
20260901125054 60 246 2.0 7.0 0.00 0.00 0.00 92 1014.4
20260901124607 60 241 1.0 7.0 0.00 0.00 0.00 92 1014.5
20260901124057 60 228 1.0 6.0 0.00 0.00 0.00 91 1014.4
20260901123551 60 360 1.0 6.0 0.00 0.00 0.00 91 1014.5
20260901123104 60 0 2.0 6.0 0.00 0.00 0.00 91 1014.5
20260901122555 60 360 1.0 5.0 0.00 0.00 0.00 91 1014.3
20260901122057 60 281 1.0 7.0 0.00 0.00 0.00 91 1014.3
20260901121614 60 360 1.0 7.0 0.00 0.00 0.00 91 1014.1
20260901121054 60 251 2.0 6.0 0.00 0.00 0.00 91 1014.2
20260901120556 60 360 2.0 5.0 0.00 0.00 0.00 91 1014.2
20260901120115 60 0 1.0 6.0 0.00 0.00 0.00 92 1014.1
20260901115554 60 0 2.0 6.0 0.00 0.00 0.00 91 1014.2
20260901115056 60 360 2.0 6.0 0.00 0.00 0.00 92 1014.2
20260901114609 60 360 2.0 6.0 0.00 0.00 0.00 92 1014.1
20260901114054 60 228 0.0 6.0 0.00 0.00 0.00 92 1014.3
20260901113556 60 244 1.0 6.0 0.00 0.00 0.00 92 1014.4
20260901113106 60 240 2.0 6.0 0.00 0.00 0.00 92 1014.3
20260901112553 60 259 2.0 6.0 0.00 0.00 0.00 92 1014.4
20260901112056 60 0 1.0 6.0 0.00 0.00 0.00 92 1014.5
20260901111609 60 360 1.0 8.0 0.00 0.00 0.00 91 1014.5
20260901111057 60 360 2.0 8.0 0.00 0.00 0.00 91 1014.5
20260901110556 60 268 2.0 10.0 0.00 0.00 0.00 91 1014.4
20260901110107 60 289 3.0 10.0 0.00 0.00 0.00 91 1014.5
20260901105556 60 0 2.0 8.0 0.00 0.00 0.00 91 1014.5
20260901105057 60 360 2.0 8.0 0.00 0.00 0.00 91 1014.5
20260901104602 61 360 2.0 8.0 0.00 0.00 0.00 91 1014.4
20260901104056 61 360 2.0 9.0 0.00 0.00 0.00 91 1014.4
20260901103555 61 181 2.0 9.0 0.00 0.00 0.00 91 1014.4
20260901103108 61 360 3.0 9.0 0.00 0.00 0.00 91 1014.4
20260901102555 61 267 2.0 10.0 0.00 0.00 0.00 91 1014.4
20260901102057 61 294 3.0 10.0 0.00 0.00 0.00 91 1014.2
20260901101602 61 257 2.0 6.0 0.00 0.00 0.00 91 1014.3
20260901101057 61 269 2.0 6.0 0.00 0.00 0.00 91 1014.3
20260901100556 61 255 1.0 6.0 0.00 0.00 0.00 90 1014.2
20260901100106 61 249 1.0 6.0 0.00 0.00 0.00 90 1014.1
20260901095556 61 360 1.0 6.0 0.00 0.00 0.00 90 1014.2
20260901095056 61 223 1.0 8.0 0.00 0.00 0.00 90 1014.2
20260901094607 61 360 1.0 8.0 0.00 0.00 0.00 90 1014.2
20260901094056 61 250 1.0 6.0 0.00 0.00 0.00 90 1014.2
20260901093556 61 244 1.0 8.0 0.00 0.00 0.00 90 1014.2
20260901093108 61 0 1.0 8.0 0.00 0.00 0.00 90 1014.1
20260901092553 61 360 0.0 7.0 0.00 0.00 0.00 89 1014.2
20260901092056 60 229 1.0 7.0 0.00 0.00 0.00 89 1014.2
20260901091620 60 0 1.0 7.0 0.00 0.00 0.00 90 1014.2
20260901091057 60 269 1.0 8.0 0.00 0.00 0.00 90 1014.4
20260901090556 60 288 2.0 8.0 0.00 0.00 0.00 89 1014.4
20260901090107 60 259 0.0 6.0 0.00 0.00 0.00 89 1014.4
20260901085555 60 360 1.0 6.0 0.00 0.00 0.00 89 1014.3
20260901085056 61 221 2.0 9.0 0.00 0.00 0.00 89 1014.3
20260901084607 61 279 2.0 9.0 0.00 0.00 0.00 89 1014.2
20260901084056 61 245 2.0 8.0 0.00 0.00 0.00 89 1014.2
20260901083555 61 360 2.0 8.0 0.00 0.00 0.00 89 1014.3
20260901083108 61 360 2.0 7.0 0.00 0.00 0.00 89 1014.3
20260901082556 61 285 2.0 8.0 0.00 0.00 0.00 88 1014.3
20260901082054 61 208 3.0 8.0 0.00 0.00 0.00 88 1014.2
20260901081602 61 288 0.0 6.0 0.00 0.00 0.00 88 1014.3
20260901081054 61 360 1.0 9.0 0.00 0.00 0.00 88 1014.3
20260901080557 61 229 1.0 10.0 0.00 0.00 0.00 87 1014.2
20260901080107 61 360 2.0 10.0 0.00 0.00 0.00 87 1014.3
20260901075557 61 219 2.0 9.0 0.00 0.00 0.00 87 1014.2
20260901075057 61 268 2.0 9.0 0.00 0.00 0.00 87 1014.2
20260901074602 61 360 1.0 5.0 0.00 0.00 0.00 86 1014.1
20260901074056 61 360 0.0 8.0 0.00 0.00 0.00 86 1014.2
20260901073556 61 181 1.0 9.0 0.00 0.00 0.00 86 1014.1
20260901073109 61 219 2.0 9.0 0.00 0.00 0.00 86 1014.1
20260901072556 61 214 2.0 9.0 0.00 0.00 0.00 86 1014.3
20260901072056 61 228 1.0 6.0 0.00 0.00 0.00 86 1014.3
20260901071604 61 320 1.0 5.0 0.00 0.00 0.00 87 1014.1
20260901071055 61 216 0.0 6.0 0.00 0.00 0.00 87 1014.2
20260901070556 61 195 1.0 6.0 0.00 0.00 0.00 87 1014.2
20260901070109 61 0 0.0 5.0 0.00 0.00 0.00 87 1014.2
20260901065555 61 236 2.0 5.0 0.00 0.00 0.00 87 1014.1
20260901065056 61 211 2.0 5.0 0.00 0.00 0.00 86 1014.2
20260901064614 61 235 2.0 9.0 0.00 0.00 0.00 86 1014.3
20260901064057 61 265 1.0 9.0 0.00 0.00 0.00 86 1014.3
20260901063556 61 283 1.0 9.0 0.00 0.00 0.00 86 1014.3
20260901063103 61 206 3.0 9.0 0.00 0.00 0.00 86 1014.3
20260901062556 61 360 2.0 6.0 0.00 0.00 0.00 86 1014.4
20260901062100 61 211 1.0 7.0 0.00 0.00 0.00 86 1014.4
20260901061601 61 227 2.0 7.0 0.00 0.00 0.00 86 1014.4
20260901061055 61 180 2.0 8.0 0.00 0.00 0.00 86 1014.4
20260901060556 61 206 1.0 8.0 0.00 0.00 0.00 85 1014.4
20260901060109 61 203 1.0 8.0 0.00 0.00 0.00 86 1014.5
20260901055555 61 0 2.0 8.0 0.00 0.00 0.00 85 1014.5
20260901055052 61 221 2.0 8.0 0.00 0.00 0.00 84 1014.5
20260901054605 61 237 1.0 10.0 0.00 0.00 0.00 84 1014.6
20260901054053 61 198 2.0 10.0 0.00 0.00 0.00 84 1014.6
20260901053556 61 264 1.0 5.0 0.00 0.00 0.00 84 1014.6
20260901053106 61 236 1.0 5.0 0.00 0.00 0.00 83 1014.6
20260901052552 61 0 2.0 6.0 0.00 0.00 0.00 83 1014.6
20260901052052 61 0 1.0 8.0 0.00 0.00 0.00 84 1014.6
20260901051604 61 360 2.0 8.0 0.00 0.00 0.00 84 1014.5
20260901051055 61 360 2.0 8.0 0.00 0.00 0.00 83 1014.6
20260901050552 61 248 3.0 6.0 0.00 0.00 0.00 84 1014.5
20260901050107 61 360 1.0 9.0 0.00 0.00 0.00 85 1014.5
20260901045552 61 263 2.0 9.0 0.00 0.00 0.00 85 1014.5
20260901045052 61 0 2.0 9.0 0.00 0.00 0.00 85 1014.5
20260901044606 61 360 0.0 5.0 0.00 0.00 0.00 85 1014.5
20260901044052 61 0 1.0 5.0 0.00 0.00 0.00 85 1014.5
20260901043553 61 287 1.0 7.0 0.00 0.00 0.00 85 1014.5
20260901043104 61 234 1.0 7.0 0.00 0.00 0.00 85 1014.4
20260901042555 61 229 1.0 6.0 0.00 0.00 0.00 85 1014.4
20260901042054 61 240 0.0 6.0 0.00 0.00 0.00 84 1014.4
20260901041602 61 0 1.0 6.0 0.00 0.00 0.00 84 1014.4
20260901041053 61 240 1.0 6.0 0.00 0.00 0.00 84 1014.4
20260901040552 61 360 2.0 6.0 0.00 0.00 0.00 84 1014.3
20260901040108 61 360 1.0 9.0 0.00 0.00 0.00 84 1014.3
20260901035552 61 360 2.0 9.0 0.00 0.00 0.00 84 1014.2
20260901035052 61 219 2.0 9.0 0.00 0.00 0.00 84 1014.1
20260901034607 61 225 1.0 9.0 0.00 0.00 0.00 85 1014.1
20260901034053 61 360 2.0 9.0 0.00 0.00 0.00 85 1014.0
20260901033552 61 250 1.0 9.0 0.00 0.00 0.00 86 1014.0
20260901033103 61 360 1.0 8.0 0.00 0.00 0.00 86 1013.9
20260901032552 61 0 3.0 8.0 0.00 0.00 0.00 85 1013.8
20260901032052 61 165 2.0 6.0 0.00 0.00 0.00 86 1013.7
20260901031606 61 251 1.0 6.0 0.00 0.00 0.00 85 1013.8
20260901031053 61 255 2.0 9.0 0.00 0.00 0.00 85 1013.6
20260901030551 61 254 3.0 10.0 0.00 0.00 0.00 85 1013.5
20260901030105 61 260 2.0 11.0 0.00 0.00 0.00 85 1013.5
20260901025553 61 231 2.0 11.0 0.00 0.00 0.00 85 1013.5
20260901025054 61 360 3.0 11.0 0.00 0.00 0.00 85 1013.5
20260901024611 61 360 3.0 10.0 0.00 0.00 0.00 84 1013.5
20260901024057 61 360 2.0 10.0 0.00 0.00 0.00 84 1013.5
20260901023556 61 249 4.0 10.0 0.00 0.00 0.00 83 1013.6
20260901023106 61 264 3.0 9.0 0.00 0.00 0.00 82 1013.6
20260901022556 61 242 4.0 11.0 0.00 0.00 0.00 82 1013.6
20260901022055 61 263 3.0 11.0 0.00 0.00 0.00 81 1013.5
20260901021602 61 196 3.0 10.0 0.00 0.00 0.00 81 1013.7
20260901021056 61 221 3.0 10.0 0.00 0.00 0.00 80 1013.6
20260901020557 62 238 3.0 11.0 0.00 0.00 0.00 81 1013.6
20260901015554 62 242 3.0 12.0 0.00 0.00 0.00 81 1013.6
20260901015056 62 332 4.0 12.0 0.00 0.00 0.00 81 1013.6
20260901014606 62 360 3.0 12.0 0.00 0.00 0.00 81 1013.6
20260901014056 62 278 4.0 11.0 0.00 0.00 0.00 81 1013.6
20260901013557 62 360 4.0 10.0 0.00 0.00 0.00 81 1013.6
20260901013123 62 208 4.0 13.0 0.00 0.00 0.00 81 1013.6
20260901012555 62 360 2.0 13.0 0.00 0.00 0.00 82 1013.6
20260901012055 62 360 4.0 13.0 0.00 0.00 0.00 82 1013.5
20260901011605 62 360 3.0 10.0 0.00 0.00 0.00 82 1013.4
20260901011055 62 360 2.0 9.0 0.00 0.00 0.00 82 1013.4
20260901010556 62 215 3.0 12.0 0.00 0.00 0.00 83 1013.5
20260901010119 62 246 4.0 12.0 0.00 0.00 0.00 83 1013.5
20260901005555 62 238 4.0 12.0 0.00 0.00 0.00 83 1013.6
20260901005054 62 360 3.0 12.0 0.00 0.00 0.00 84 1013.5
20260901004617 62 302 3.0 11.0 0.00 0.00 0.00 85 1013.6
20260901004052 62 212 3.0 11.0 0.00 0.00 0.00 85 1013.6
20260901003555 62 360 4.0 15.0 0.00 0.00 0.00 84 1013.7
20260901003103 62 305 2.0 15.0 0.00 0.00 0.00 85 1013.7
20260901002556 62 111 4.0 15.0 0.00 0.00 0.00 84 1013.6
20260901002056 62 360 3.0 14.0 0.00 0.00 0.00 84 1013.7
20260901001604 62 217 4.0 14.0 0.00 0.00 0.00 84 1013.8
20260901001055 62 232 4.0 10.0 0.00 0.00 0.00 84 1013.8
20260901000555 63 257 2.0 10.0 0.00 0.00 0.00 83 1013.8
20260901000108 62 197 3.0 10.0 0.00 0.00 0.00 83 1013.7
20260831235555 62 206 2.0 9.0 0.00 0.00 0.00 84 1013.9
20260831235055 62 249 2.0 9.0 0.00 0.00 0.00 83 1013.9
20260831234635 63 246 2.0 8.0 0.00 0.00 0.00 83 1013.9
20260831234100 63 195 1.0 10.0 0.00 0.00 0.00 83 1014.0
20260831233552 62 233 3.0 10.0 0.00 0.00 0.00 83 1013.9
20260831233101 62 269 3.0 10.0 0.00 0.00 0.00 83 1014.0
20260831232552 62 300 3.0 10.0 0.00 0.00 0.00 83 1014.0
20260831232055 62 219 2.0 11.0 0.00 0.00 0.00 83 1013.9
20260831231603 62 269 3.0 11.0 0.00 0.00 0.00 82 1013.9
20260831231054 63 284 2.0 11.0 0.00 0.00 0.00 83 1013.9
20260831230552 62 242 4.0 11.0 0.00 0.00 0.00 83 1014.0
20260831230108 63 217 2.0 16.0 0.00 0.00 0.00 83 1014.1
20260831225554 63 360 2.0 16.0 0.00 0.00 0.00 83 1014.2
20260831225055 63 260 6.0 16.0 0.00 0.00 0.00 83 1014.1
20260831224602 63 229 5.0 14.0 0.00 0.00 0.00 83 1014.1
20260831224055 63 208 4.0 11.0 0.00 0.00 0.00 84 1014.2
20260831223554 63 219 5.0 15.0 0.00 0.00 0.00 83 1014.2
20260831223107 63 243 5.0 15.0 0.00 0.00 0.00 84 1014.3
20260831222552 63 206 5.0 11.0 0.00 0.00 0.00 83 1014.3
20260831222054 63 282 3.0 11.0 0.00 0.00 0.00 83 1014.3
20260831221605 63 247 4.0 11.0 0.00 0.00 0.00 83 1014.3
20260831221053 63 279 4.0 11.0 0.00 0.00 0.00 83 1014.4
20260831220553 63 239 5.0 12.0 0.00 0.00 0.00 83 1014.4
20260831220105 63 259 5.0 12.0 0.00 0.00 0.00 83 1014.5
20260831215555 63 230 3.0 13.0 0.00 0.00 0.00 83 1014.5
20260831215055 63 199 3.0 13.0 0.00 0.00 0.00 84 1014.6
20260831214616 63 213 3.0 14.0 0.00 0.00 0.00 83 1014.6
20260831214055 63 212 3.0 14.0 0.00 0.00 0.00 83 1014.7
20260831213555 63 215 3.0 10.0 0.00 0.00 0.00 83 1014.7
20260831213104 63 263 5.0 10.0 0.00 0.00 0.00 83 1014.7
20260831212558 63 198 3.0 12.0 0.00 0.00 0.00 83 1014.9
20260831212053 63 220 4.0 12.0 0.00 0.00 0.00 84 1014.9
20260831211607 62 195 3.0 12.0 0.00 0.00 0.00 84 1014.9
20260831211052 62 277 4.0 11.0 0.00 0.00 0.00 84 1014.9
20260831210552 62 233 4.0 10.0 0.00 0.00 0.00 84 1015.0